Location: Bun Machan
(52.1403°N, 7.3744°W)
Time: 19:01:17
(UTC+00:00)

Cosmos 1441 Rocket - Pass Details

Date: 14 July 2020
Orbit: 495 x 541 km, 81.1° (Epoch: 11 August)

Event Time Altitude Azimuth Distance (km) Brightness Sun altitude
Exits shadow 00:10:40 23° 131° (SE) 1,171 4.6 -16.0°
Maximum altitude 00:12:08 30° 93° (E) 980 4.5 -16.0°
Drops below altitude 10° 00:15:37 10° 32° (NNE) 1,797 6.7 -16.1°
Sets 00:17:56 0° 21° (NNE) 2,685 8.0 -16.1°
